Regional Weather Roundup
Issued by NWS

Home | Current Version | Previous Version | Graphics & Text | Print | Product List | Glossary Off
Versions: 1 2 3 4 5 6 7 8 9 10 11 12 13 14 15 16 17 18 19 20 21 22 23 24 25 26 27 28 29 30 31 32 33 34 35 36 37 38 39 40 41 42 43 44 45 46 47 48 49 50

000
ASUS43 KLSX 060757
RWRMO

WEATHER SUMMARY FOR MISSOURI
NATIONAL WEATHER SERVICE SPRINGFIELD MO
200 AM CST SAT FEB 06 2016

NOTE: "FAIR" INDICATES FEW OR NO CLOUDS BELOW 12,000 FEET WITH NO
       SIGNIFICANT WEATHER AND/OR OBSTRUCTIONS TO VISIBILITY.
       CURRENT SKY AND/OR WEATHER CONDITIONS ARE NOT AVAILABLE FOR
       CHILLICOTHE AND FARMINGTON.

MOZ001>031-035>038-043-044-053-054-060900-
...NORTHERN AND WESTERN MISSOURI...

CITY           SKY/WX    TMP DP  RH WIND       PRES   REMARKS
KANSAS CTY INT CLEAR     31  24  75 NE6       30.24S WCI  25
LEE`S SUMMIT   PTCLDY    36  24  62 S12       30.24F WCI  28
ST JOSEPH      CLEAR     25  22  88 N5        30.27S WCI  19
CHILLICOTHE      N/A     28  23  81 CALM      30.28S

$$
MOZ066>068-077>081-088>096-101>105-060900-
...SOUTHWEST MISSOURI...

CITY           SKY/WX    TMP DP  RH WIND       PRES   REMARKS
SPRINGFIELD    MOCLDY    32  18  56 S6        30.28R WCI  26
JOPLIN         CLEAR     40  19  43 S10       30.28S

$$
MOZ032>034-039>042-045>050-055>058-069>072-060900-
...CENTRAL MISSOURI...

CITY           SKY/WX    TMP DP  RH WIND       PRES   REMARKS
COLUMBIA       NOT AVBL
JEFFERSON CITY CLOUDY    31  20  63 SE6       30.30F WCI  25
ROLLA          CLEAR     29  19  66 SW6       30.26S WCI  23
SEDALIA        CLOUDY    35  20  54 S8        30.28S WCI  29

$$
MOZ051-052-059>065-060900-
...EAST CENTRAL MISSOURI...

CITY           SKY/WX    TMP DP  RH WIND       PRES   REMARKS
ST LOUIS INTL  CLOUDY    32  22  66 E3        30.32S

$$
MOZ072>076-082>087-097>100-106>115-060900-
...SOUTH CENTRAL AND SOUTHEAST MISSOURI...

CITY           SKY/WX    TMP DP  RH WIND       PRES   REMARKS
CAPE GIRARDEAU CLEAR     26  23  88 S3        30.34S
POPLAR BLUFF   CLEAR     33  24  69 SW3       30.33S
WEST PLAINS    CLEAR     35  14  42 SW6       30.31S

$$


USA.gov is the U.S. government's official web portal to all federal, state and local government web resources and services.